Location: San Antonio
(29.4240°N, 98.4930°W)
Time: 01:13:04
(UTC-05:00)

ISS - All Passes

Search period start: 03 July 2015 00:00
Search period end: 13 July 2015 00:00
Orbit: 398 x 403 km, 51.6° (Epoch: 02 July)

Date Brightness Start Highest point End Pass type
(mag) Time Alt. Az. Time Alt. Az. Time Alt. Az.
03 Jul - 07:37:50 10° SSE 07:39:21 13° SE 07:41:01 10° E daylight
03 Jul - 09:12:33 10° WSW 09:15:33 33° NW 09:18:32 10° NNE daylight
03 Jul - 15:45:51 10° N 15:47:19 13° NE 15:48:52 10° ENE daylight
03 Jul - 17:20:48 10° NW 17:23:55 46° SW 17:27:02 10° SSE daylight
04 Jul - 08:18:47 10° SW 08:22:01 84° NW 08:25:16 10° NE daylight
04 Jul - 16:27:16 10° NW 16:30:28 65° NE 16:33:41 10° SE daylight
05 Jul - 07:25:35 10° SSW 07:28:35 36° SE 07:31:37 10° ENE daylight
05 Jul - 09:03:09 10° WNW 09:05:07 15° NW 09:07:00 10° N daylight
05 Jul - 15:34:05 10° NNW 15:36:54 27° NE 15:39:45 10° ESE daylight
05 Jul - 17:11:02 10° W 17:13:09 16° SW 17:15:10 10° SSW daylight
06 Jul - 06:33:12 10° SSE 06:35:11 16° SE 06:37:15 10° E daylight
06 Jul - 08:08:32 10° WSW 08:11:25 28° NW 08:14:17 10° NNE daylight
06 Jul - 14:41:23 10° N 14:43:12 14° NE 14:45:06 10° ENE daylight
06 Jul - 16:16:43 10° WNW 16:19:44 37° SW 16:22:44 10° SSE daylight
07 Jul - 07:14:37 10° SW 07:17:50 68° NW 07:21:03 10° NE daylight
07 Jul - 15:23:03 10° NW 15:26:16 81° NE 15:29:29 10° SE daylight
08 Jul - 06:21:14 10° SSW 06:24:20 45° SE 06:27:27 10° ENE daylight
08 Jul - 07:59:18 10° WNW 08:00:56 13° NW 08:02:29 10° N daylight
08 Jul - 14:29:44 10° NNW 14:32:41 32° NE 14:35:39 10° ESE daylight
08 Jul - 16:07:09 10° W 16:08:53 13° SW 16:10:28 10° SSW daylight
09 Jul - 05:28:35 10° S 05:30:53 19° SE 05:33:16 10° E visible
09 Jul - 07:04:25 10° W 07:07:10 24° NW 07:09:53 10° NNE daylight
09 Jul - 13:36:52 10° N 13:38:58 16° NE 13:41:09 10° E daylight
09 Jul - 15:12:31 10° WNW 15:15:26 31° SW 15:18:19 10° SSE daylight
10 Jul - 06:10:20 10° SW 06:13:31 55° NW 06:16:43 10° NE visible
10 Jul - 14:18:43 10° NW 14:21:57 83° SW 14:25:10 10° SE daylight
11 Jul - 05:16:48 10° SSW 05:19:59 55° SE 05:23:10 10° NE visible
11 Jul - 06:55:27 10° NW 06:56:38 11° NW 06:57:44 10° NNW daylight
11 Jul - 13:25:18 10° NNW 13:28:21 38° NE 13:31:23 10° ESE daylight
11 Jul - 15:03:24 10° WSW 15:04:30 11° SW 15:05:26 10° SW daylight
12 Jul - 04:23:55 10° S 04:26:29 22° SE 04:29:06 10° ENE visible
12 Jul - 06:00:14 10° W 06:02:49 21° NW 06:05:22 10° NNE visible
12 Jul - 12:32:17 10° N 12:34:37 19° NE 12:37:01 10° E daylight
12 Jul - 14:08:15 10° WNW 14:11:01 26° SW 14:13:45 10° S daylight
